Tracking 29892 objects as of 21-Nov-2024
HD Live streaming from Space Station
objects crossing your sky now

OPS 2222

Track OPS 2222 now!
OPS 2222 is classified as:


NORAD ID: 3334
Int'l Code: 1968-063A
Perigee: 32,155.4 km
Apogee: 40,006.9 km
Inclination: 7.4 °
Period: 1,450.8 minutes
Semi major axis: 42452 km
RCS: Unknown
Launch date: August 6, 1968
Source: United States (US)
Launch site: AIR FORCE EASTERN TEST RANGE (AFETR)
Your satellite tracking list
Your tracking list is empty




NASA's NSSDC Master Catalog

Two Line Element Set (TLE):
1 03334U 68063A   24325.68941198 -.00000103  00000-0  00000-0 0  9993
2 03334   7.3957 289.0587 0924745 215.0744 350.8606  0.99255244 20436
Source of the keplerian elements: McCants